Flag for U.S.A. Weather past 2 weeks in Orlando, Florida, U.S.A.

Now
69 °F

Sunny.


Feels Like: 69 °F
Forecast: 42 / 68 °F
Wind: 7 mph from East

Location: Orlando Executive Airport

Current Time: Jan 29, 2015 at 5:50:09 PM

Latest Report: Jan 29, 2015 at 4:53 PM


Visibility: 10 mi

Pressure: 30.24 "Hg

Humidity: 44%

Dew point: 46 °F

Location of OrlandoLocation

Historic Weather in Orlando — Graph

°F

Orlando temperature yesterday

Maximum temperature yesterday: 61 °F (at 1:53 PM)
Minimum temperature yesterday: 46 °F (at 7:53 AM)
Average temperature yesterday: 52 °F

Past Weeks' High & Low Weather Summary

 TemperatureHumidityPressure
High78 °F (Jan 23, 2:53 PM)97% (Jan 16, 5:53 AM)30.35 "Hg (Jan 16, 5:53 AM)
Low44 °F (Jan 27, 5:53 AM)24% (Jan 19, 1:53 PM)29.80 "Hg (Jan 24, 5:03 AM)
Average59 °F71%30.09 "Hg
* Reported Jan 14 4:00 PM — Jan 29 4:53 PM, Orlando, Weather by CustomWeather, © 2014

Note: Actual official high and low records may vary slightly from our data, if they occured in-between our weather recording intervals... More about our weather records

Advertising

Orlando weather history for previous 24 hours

 ConditionsComfort  
Time TempWeatherWind HumidityBarometerVisibility
4:53 PM
Jan 29
69 °FSunny.7 mph44%30.24 "Hg10 mi
3:53 PM70 °FSunny.3 mph41%30.23 "Hg10 mi
2:53 PM70 °FSunny.8 mph44%30.22 "Hg10 mi
1:53 PM69 °FSunny.3 mph44%30.25 "Hg10 mi
12:53 PM69 °FSunny.6 mph45%30.29 "Hg10 mi
11:53 AM66 °FSunny.6 mph52%30.32 "Hg10 mi
10:53 AM63 °FSunny.No wind58%30.33 "Hg10 mi
9:53 AM57 °FSunny.5 mph67%30.35 "Hg10 mi
8:53 AM52 °FSunny.3 mph75%30.34 "Hg10 mi
7:53 AM47 °FSunny.6 mph77%30.33 "Hg10 mi
6:53 AM45 °FClear.3 mph76%30.29 "Hg10 mi
5:53 AM44 °FClear.6 mph76%30.29 "Hg10 mi
4:53 AM45 °FClear.6 mph74%30.27 "Hg10 mi
3:53 AM45 °FClear.5 mph74%30.28 "Hg10 mi
2:53 AM47 °FClear.6 mph69%30.28 "Hg10 mi
1:53 AM47 °FClear.7 mph71%30.30 "Hg10 mi
12:53 AM47 °FClear.6 mph71%30.29 "Hg10 mi
11:53 PM
Jan 28
48 °FClear.6 mph71%30.30 "Hg10 mi
10:53 PM49 °FClear.5 mph69%30.30 "Hg10 mi
9:53 PM49 °FClear.5 mph66%30.29 "Hg10 mi
8:53 PM49 °FClear.8 mph69%30.28 "Hg10 mi
7:53 PM50 °FClear.9 mph66%30.27 "Hg10 mi
6:53 PM52 °FClear.10 mph61%30.26 "Hg10 mi
5:53 PM56 °FSunny.12 mph51%30.23 "Hg10 mi
Weather by CustomWeather, © 2014

See weather overviewHow to use our weather pages